Regional Weather Roundup
Issued by NWS Bismarck, ND

Home | Current Version | Previous Version | Text Only | Print | Product List | Glossary On
Versions: 1 2 3 4 5 6 7 8 9 10 11 12 13 14 15 16 17 18 19 20 21 22 23 24 25 26 27 28 29 30 31 32 33 34 35 36 37 38 39 40 41 42 43 44 45 46 47 48 49 50
000
ASUS43 KBIS 220459
RWRBIS

NWR BROADCAST TEXT
NATIONAL WEATHER SERVICE BISMARCK ND
1200 AM CDT WED OCT 22 2014

NOTE: "FAIR" INDICATES FEW OR NO CLOUDS BELOW 12,000 FEET WITH NO
SIGNIFICANT WEATHER AND/OR OBSTRUCTIONS TO VISIBILITY.


CITY           SKY/WX    TMP DP  RH WIND       PRES   REMARKS
WILLISTON      PTCLDY    48  41  76 CALM      29.60S
MINOT          CLEAR     65  41  41 S21G30    29.57F
MINOT AFB      NOT AVBL
BISMARCK       CLEAR     66  39  37 S22       29.66F
DICKINSON      NOT AVBL
GARRISON         N/A     64  47  53 S9        29.61S
HETTINGER ARPT PTCLDY    60  44  55 SW7       29.67S
JAMESTOWN      NOT AVBL
CARRINGTON     FAIR      59  46  63 S24G30    29.74F HAZE
OAKES            N/A     63  46  55 SE21G26   29.84S
$$

CITY           SKY/WX    TMP DP  RH WIND       PRES   REMARKS
GRAND FORKS    CLEAR     55  41  59 S22G29    29.85F
GRAND FORKS AF NOT AVBL
DEVILS LAKE    PTCLDY    59  43  55 S23G30    29.72F
FARGO          FAIR      56  41  57 SE22G37   29.91S
GWINNER        CLEAR     57  43  58 SE15      29.88F
$$

CITY           SKY/WX    TMP DP  RH WIND       PRES   REMARKS
ABERDEEN       CLEAR     64  43  46 S22G36    29.85S
MOBRIDGE       CLEAR     64  47  53 SE12      29.71F
RAPID CITY     PTCLDY    58  43  57 S5        29.77S
GLASGOW        MOCLDY    53  45  74 W15       29.71R
SIDNEY         CLOUDY    57  45  62 SE9       29.68R
WOLF POINT     CLOUDY    56  47  71 W13       29.68R
GLENDIVE       CLOUDY    55  48  76 W15       29.74R
MILES CITY     LGT RAIN  56  44  64 W14       29.81R
BAKER          MOCLDY    60  45  57 W14       29.75R
$$

CITY           SKY/WX    TMP DP  RH WIND       PRES   REMARKS
BILLINGS       PTCLDY    49  32  52 W22       29.92R
GREAT FALLS    CLOUDY    44  37  76 SW12      29.88R
$$




USA.gov is the U.S. government's official web portal to all federal, state and local government web resources and services.